Printer-friendly version

IAU Minor Planet Center

Minor Planet Center

6P/d'Arrest

Orbital Elements

The following orbital elements are taken from MPC 62880:
6P/d'Arrest
Epoch 2008 Aug. 2.0 TT = JDT 2454680.5
T 2008 Aug. 14.9589 TT                                  MPC
q   1.353507             (2000.0)            P               Q
n   0.1507993      Peri.  178.1196      +0.7332504      +0.6435761
a   3.495718       Node   138.9358      -0.6281291      +0.7646977
e   0.612810       Incl.   19.5148      -0.2603801      -0.0323621
P   6.54
From 343 observations 1995-2008, mean residual 0".7.  Nongravitational
     parameters A1 = +0.87, A2 = +0.0993.
Elements are also available for the current standard epoch:
6P/d'Arrest
Epoch 2009 June 18.0 TT = JDT 2455000.5
T 2008 Aug. 14.9663 TT                                  MPC
q   1.353724             (2000.0)            P               Q
n   0.1507881      Peri.  178.1336      +0.7333863      +0.6434174
a   3.495892       Node   138.9339      -0.6279632      +0.7648333
e   0.612767       Incl.   19.5151      -0.2603972      -0.0323109
P   6.54
An explanation of the orbital elements is available.

These orbital elements are also available in forms suitable for loading into a number of popular planetarium-type software programs.


Ephemeris

The following ephemeris is at intervals of five days. A daily ephemeris covering the same time interval is also available.

Personalized ephemerides for this (and other) objects may be generated using the Minor Planet & Comet Ephemeris Service.

Recent magnitude estimates for this comet (as reported to the ICQ) may be available.

Date    TT    R. A. (2000) Decl.     Delta      r     Elong.  Phase   m1    m2

WARNING!

This comet gets close to the sun during the period covered in the ephemeris below. Observers are warned to be wary of observing comets near the sun. NEVER point any kind of optical instrument at the sun--instant blindness will be the probable result.

2009 06 08 05 09.58 +09 48.4 4.078 3.098 13.1 4.3 22.4 2009 06 13 05 16.63 +10 00.4 4.108 3.129 13.3 4.3 22.4 2009 06 18 05 23.57 +10 10.4 4.134 3.160 14.3 4.5 22.5 2009 06 23 05 30.40 +10 18.4 4.157 3.190 15.7 5.0 22.5 2009 06 28 05 37.12 +10 24.5 4.175 3.221 17.6 5.5 22.6 2009 07 03 05 43.71 +10 28.8 4.189 3.251 19.8 6.1 22.6 2009 07 08 05 50.16 +10 31.2 4.199 3.281 22.3 6.7 22.7 2009 07 13 05 56.48 +10 32.0 4.205 3.311 24.9 7.4 22.8 2009 07 18 06 02.64 +10 31.1 4.206 3.340 27.7 8.1 22.8 2009 07 23 06 08.64 +10 28.6 4.204 3.370 30.6 8.8 22.9 2009 07 28 06 14.47 +10 24.6 4.197 3.399 33.6 9.5 22.9 2009 08 02 06 20.11 +10 19.2 4.187 3.427 36.7 10.2 22.9 2009 08 07 06 25.56 +10 12.4 4.172 3.456 39.9 10.9 23.0 2009 08 12 06 30.81 +10 04.4 4.154 3.485 43.2 11.5 23.0 2009 08 17 06 35.84 +09 55.3 4.131 3.513 46.5 12.1 23.0 2009 08 22 06 40.64 +09 45.0 4.105 3.541 50.0 12.6 23.1 2009 08 27 06 45.19 +09 33.8 4.076 3.568 53.5 13.2 23.1 2009 09 01 06 49.47 +09 21.8 4.043 3.596 57.1 13.6 23.1 2009 09 06 06 53.49 +09 09.0 4.007 3.623 60.8 14.0 23.1 2009 09 11 06 57.21 +08 55.6 3.968 3.650 64.5 14.4 23.1 2009 09 16 07 00.62 +08 41.7 3.927 3.677 68.4 14.7 23.1 2009 09 21 07 03.71 +08 27.4 3.883 3.704 72.3 15.0 23.1 2009 09 26 07 06.45 +08 13.0 3.836 3.730 76.4 15.1 23.1 2009 10 01 07 08.83 +07 58.4 3.789 3.756 80.5 15.2 23.1 2009 10 06 07 10.82 +07 44.0 3.740 3.782 84.8 15.3 23.1 2009 10 11 07 12.42 +07 29.8 3.690 3.808 89.1 15.2 23.1 2009 10 16 07 13.61 +07 16.1 3.639 3.833 93.6 15.0 23.1 2009 10 21 07 14.35 +07 03.0 3.589 3.858 98.2 14.8 23.0 2009 10 26 07 14.66 +06 50.7 3.540 3.884 102.9 14.5 23.0 2009 10 31 07 14.50 +06 39.5 3.491 3.908 107.6 14.0 23.0 2009 11 05 07 13.88 +06 29.5 3.445 3.933 112.6 13.5 22.9 2009 11 10 07 12.80 +06 20.9 3.401 3.957 117.6 12.8 22.9 2009 11 15 07 11.26 +06 13.9 3.360 3.982 122.7 12.1 22.9 2009 11 20 07 09.27 +06 08.7 3.323 4.006 127.8 11.2 22.8 2009 11 25 07 06.85 +06 05.5 3.290 4.029 133.1 10.3 22.8 2009 11 30 07 04.03 +06 04.5 3.263 4.053 138.3 9.3 22.7 2009 12 05 07 00.85 +06 05.6 3.241 4.076 143.6 8.3 22.7 2009 12 10 06 57.35 +06 09.1 3.226 4.100 148.7 7.2 22.6 2009 12 15 06 53.60 +06 14.8 3.218 4.123 153.6 6.1 22.6 2009 12 20 06 49.66 +06 23.0 3.217 4.145 158.0 5.1 22.6 2009 12 25 06 45.60 +06 33.3 3.223 4.168 161.5 4.3 22.5 2009 12 30 06 41.50 +06 45.9 3.238 4.190 163.5 3.8 22.5 2010 01 04 06 37.43 +07 00.3 3.260 4.212 163.5 3.8 22.5 2010 01 09 06 33.46 +07 16.6 3.291 4.234 161.4 4.3 22.6 2010 01 14 06 29.66 +07 34.4 3.329 4.256 157.8 5.0 22.7 2010 01 19 06 26.11 +07 53.6 3.375 4.278 153.4 5.9 22.8 2010 01 24 06 22.84 +08 13.8 3.428 4.299 148.6 6.9 22.9 2010 01 29 06 19.92 +08 34.9 3.488 4.320 143.5 7.8 22.9 2010 02 03 06 17.38 +08 56.5 3.555 4.341 138.4 8.7 23.0 2010 02 08 06 15.23 +09 18.5 3.627 4.362 133.2 9.5 23.1 2010 02 13 06 13.50 +09 40.6 3.704 4.382 128.1 10.2 23.2 2010 02 18 06 12.20 +10 02.6 3.786 4.403 123.0 10.9 23.3 2010 02 23 06 11.33 +10 24.5 3.872 4.423 117.9 11.4 23.4 2010 02 28 06 10.88 +10 45.9 3.962 4.443 113.0 11.8 23.4 2010 03 05 06 10.84 +11 06.8 4.054 4.463 108.1 12.2 23.5 2010 03 10 06 11.20 +11 27.1 4.148 4.482 103.3 12.4 23.6 2010 03 15 06 11.95 +11 46.7 4.244 4.502 98.6 12.6 23.7 2010 03 20 06 13.06 +12 05.4 4.340 4.521 94.0 12.7 23.7 2010 03 25 06 14.51 +12 23.2 4.438 4.540 89.5 12.7 23.8 2010 03 30 06 16.29 +12 40.1 4.535 4.559 85.1 12.6 23.8 2010 04 04 06 18.36 +12 56.0 4.631 4.578 80.7 12.5 23.9 2010 04 09 06 20.71 +13 10.8 4.727 4.596 76.4 12.2 23.9 2010 04 14 06 23.32 +13 24.6 4.821 4.614 72.2 11.9 24.0 2010 04 19 06 26.17 +13 37.3 4.913 4.633 68.1 11.6 24.0 2010 04 24 06 29.23 +13 48.8 5.003 4.651 64.0 11.2 24.0 2010 04 29 06 32.49 +13 59.3 5.090 4.668 60.0 10.8 24.1 2010 05 04 06 35.93 +14 08.5 5.174 4.686 56.0 10.3 24.1 2010 05 09 06 39.53 +14 16.7 5.256 4.703 52.1 9.7 24.1 2010 05 14 06 43.27 +14 23.7 5.333 4.721 48.2 9.2 24.1 2010 05 19 06 47.15 +14 29.5 5.407 4.738 44.4 8.6 24.1 2010 05 24 06 51.13 +14 34.3 5.477 4.754 40.6 8.0 24.1 2010 05 29 06 55.21 +14 37.9 5.543 4.771 36.9 7.3 24.1 2010 06 03 06 59.37 +14 40.4 5.604 4.788 33.2 6.7 24.1 2010 06 08 07 03.60 +14 41.9 5.661 4.804 29.5 6.0 24.1 2010 06 13 07 07.89 +14 42.2 5.713 4.820 25.9 5.3 24.1 2010 06 18 07 12.22 +14 41.6 5.760 4.836 22.4 4.6 24.1 2010 06 23 07 16.59 +14 40.0 5.802 4.852 18.9 3.9 24.1 2010 06 28 07 20.97 +14 37.4 5.839 4.868 15.5 3.2 24.1 2010 07 03 07 25.36 +14 33.8 5.871 4.883 12.4 2.6 24.1 2010 07 08 07 29.75 +14 29.4 5.898 4.898 9.6 2.0 24.0 2010 07 13 07 34.12 +14 24.2 5.919 4.914 7.6 1.6 24.0

Back to Observable Comets


Valid HTML 4.01!